[[{"header":{"parameterUnit":"m.s-1","parameterCategory":1,"la1":30.2991,"la2":30.254,"lo1":-89.0895,"lo2":-89.0444,"dy":0.0017,"dx":0.0017,"nx":28,"ny":28,"refTime":"2024-03-10T09:00:00:Z","depth":0,"parameterNumber":2,"parameterNumberName":"U-component_of_WINDS"},"data":[0,0,0,0,0,0,0,0,0,0,0,0,0,0,0,0,0,0,0,0,0,0,0,0,0,0,0,0,0,0,0,0,0,0,0,0,0,0,0,0,0,0,0,0,0,0,0,0,0,0,0,0,0,0,0,0,0,0,-4.3131,-4.3131,0,-4.3157,-4.3157,-4.3157,-4.2972,-4.2966,-4.2961,-4.2956,-4.2986,-4.2992,-4.2997,0,0,0,0,0,0,0,0,0,0,0,0,0,-4.2923,-4.2928,-4.3131,-4.3131,-4.3132,-4.3157,-4.3157,-4.3157,-4.2972,-4.2966,-4.296,-4.2954,-4.2984,-4.2991,-4.2998,0,0,0,0,0,0,0,0,0,0,0,0,0,-4.2988,-4.2929,-4.3131,-4.3042,-4.3034,-4.3157,-4.3157,-4.3157,-4.2974,-4.2966,-4.2958,-4.2951,-4.2982,-4.2991,-4.2999,-4.3209,0,0,-4.3025,-4.3029,0,0,0,0,0,0,0,0,-4.2984,-4.2996,-4.3055,-4.3048,-4.304,-4.3053,-4.3094,-4.3175,-4.2976,-4.2997,-4.2956,-4.2947,-4.3015,-4.302,-4.3043,-4.321,-4.3211,-4.3026,-4.3031,-4.3035,-4.3037,0,0,0,0,0,0,0,-4.298,-4.2993,-4.3141,-4.3056,-4.3047,-4.3002,-4.3002,-4.3109,-4.305,-4.2994,-4.2981,-4.2986,-4.3009,-4.3035,-4.3042,-4.3212,-4.3025,-4.3033,-4.3038,-4.3042,-4.3551,-4.3559,0,0,0,0,0,0,-4.2987,-4.2991,-4.314,-4.3142,-4.2992,-4.3012,-4.3012,-4.3057,-4.3048,-4.3039,-4.2993,-4.2978,-4.3024,-4.3032,-4.3042,-4.3286,-4.3034,-4.3042,-4.3047,-4.3542,-4.3552,-4.3562,0,0,0,0,0,0,-4.2983,-4.3002,-4.3139,-4.3063,-4.3077,-4.3024,-4.3075,-4.3061,-4.3086,-4.3047,-4.3036,-4.303,-4.3018,-4.303,-4.3168,-4.3285,-4.3046,-4.3054,-4.3532,-4.3545,-4.3557,-4.3777,0,0,0,0,0,0,-4.2978,-4.3002,-4.3081,-4.3066,-4.3081,-4.3265,-4.3082,-4.3068,-4.3101,-4.3081,-4.3078,-4.3071,-4.3013,-4.3156,-4.3177,-4.3292,-4.3061,-4.3522,-4.3538,-4.3553,-4.3759,-4.3796,-4.3827,0,0,0,0,0,-4.2971,-4.3143,-4.3086,-4.3105,-4.3179,-4.3272,-4.3281,-4.321,-4.3111,-4.319,-4.3165,-4.3071,-4.3269,-4.3172,-4.3193,-4.3313,-4.3514,-4.3534,-4.3552,-4.3744,-4.3789,-4.3826,0,0,0,0,0,0,-4.3175,-4.314,-4.3076,-4.3248,-4.3264,-4.324,-4.3338,-4.326,-4.3306,-4.3286,-4.3197,-4.3198,-4.335,-4.3345,-4.3238,-4.3515,-4.3374,-4.3398,-4.3513,-4.3555,-4.3588,-4.3587,-4.3068,0,0,0,0,0,-4.324,-4.3317,-4.3282,-4.3437,-4.3449,-4.3393,-4.343,-4.3374,-4.3388,-4.3395,-4.3379,-4.3397,-4.3462,-4.3508,-4.3567,-4.3757,-4.3753,-4.385,-4.3884,-4.3912,-4.3934,-4.4033,-4.4076,-4.3624,-4.3624,-4.3623,0,0,-4.3375,-4.3365,-4.342,-4.3478,-4.3484,-4.3567,-4.34,-4.3495,-4.3556,-4.3409,-4.3538,-4.3527,-4.3541,-4.3706,-4.3778,-4.3706,-4.4058,-4.3936,-4.3958,-4.3966,-4.4057,-4.41,-4.4138,-4.3637,-4.3634,-4.3632,0,0,-4.3663,-4.3664,-4.3792,-4.3801,-4.3811,-4.3772,-4.3804,-4.3791,-4.3778,-4.3905,-4.3797,-4.3868,-4.3984,-4.3998,-4.402,-4.4311,-4.4227,-4.4333,-4.4511,-4.4608,-4.4644,-4.4675,-4.4779,-4.4818,-4.4355,-4.4356,-4.4356,0,-4.383,-4.395,-4.3868,-4.397,-4.3999,-4.3868,-4.3998,-4.4011,-4.4041,-4.4064,-4.3983,-4.4124,-4.4124,-4.429,-4.4361,-4.4383,-4.4416,-4.4334,-4.4645,-4.4676,-4.4704,-4.4802,-4.4841,-4.4368,-4.4367,-4.4366,-4.4364,0,-4.4154,-4.4239,-4.4342,-4.4372,-4.4412,-4.4528,-4.4464,-4.4515,-4.4454,-4.4424,-4.4555,-4.455,-4.4605,-4.464,-4.4583,-4.4798,-4.4753,-4.466,-4.4517,-4.4761,-4.4852,-4.4889,-4.4387,-4.4382,-4.4378,-4.4375,0,0,-4.4574,-4.4556,-4.4595,-4.4607,-4.4608,-4.4672,-4.4781,-4.4833,-4.4878,-4.4903,-4.4992,-4.5092,-4.5005,-4.5031,-4.4974,-4.506,-4.5291,-4.4956,-4.4955,-4.5019,-4.5527,-4.5597,-4.5642,-4.5233,-4.524,-4.5246,-4.5525,0,-4.4856,-4.504,-4.4969,-4.516,-4.5237,-4.5112,-4.5207,-4.5219,-4.5193,-4.5255,-4.5226,-4.5298,-4.5178,-4.5193,-4.5272,-4.5246,-4.5392,-4.5224,-4.5317,-4.5321,-4.5318,-4.5689,-4.5764,-4.6028,-4.556,-4.5566,-4.5571,0,-4.5209,-4.5246,-4.5445,-4.543,-4.546,-4.5547,-4.5587,-4.5648,-4.5658,-4.5633,-4.5661,-4.5584,-4.569,-4.5546,-4.5691,-4.558,-4.5612,-4.5605,-4.5614,-4.5621,-4.5462,-4.5707,-4.6111,-4.6151,-4.5626,-4.5621,-4.5617,0,-4.5496,-4.5595,-4.5726,-4.574,-4.5727,-4.5791,-4.5788,-4.579,-4.5825,-4.5861,-4.5883,-4.5932,-4.5959,-4.5998,-4.5937,-4.5838,-4.6091,-4.5942,-4.6074,-4.6076,-4.6134,-4.6131,-4.655,-4.6155,-4.6154,-4.6153,-4.6152,0,-4.5818,-4.5944,-4.5854,-4.5935,-4.6073,-4.5989,-4.6128,-4.6111,-4.6114,-4.6189,-4.6085,-4.6158,-4.6072,-4.6137,-4.609,-4.6217,-4.623,-4.6213,-4.6199,-4.6223,-4.6226,-4.6245,-4.6225,-4.6164,-4.6161,-4.6159,-4.6158,0,-4.6162,-4.6107,-4.6241,-4.6217,-4.6214,-4.6316,-4.6295,-4.6369,-4.6335,-4.6432,-4.645,-4.6397,-4.6468,-4.641,-4.648,-4.6448,-4.6616,-4.6576,-4.6613,-4.6602,-4.6737,-4.6725,-4.7184,-4.7239,-4.6808,-4.6812,-4.6816,0,-4.6372,-4.6466,-4.6451,-4.6493,-4.6497,-4.6567,-4.6601,-4.6523,-4.6563,-4.658,-4.6653,-4.6714,-4.6759,-4.6879,-4.6847,-4.69,-4.686,-4.7017,-4.6867,-4.6888,-4.6863,-4.6858,-4.6867,-4.7048,-4.7053,-4.7057,-4.706,0,-4.675,-4.6718,-4.6771,-4.6816,-4.6859,-4.6891,-4.6914,-4.6955,-4.6874,-4.6925,-4.6995,-4.7031,-4.71,-4.7163,-4.7205,-4.7202,-4.7119,-4.7107,-4.714,-4.7166,-4.7184,-4.7176,-4.6696,-4.7098,-4.7094,-4.7091,-4.7089,-4.7088,-4.7033,-4.711,-4.7111,-4.7174,-4.7183,-4.7206,-4.7274,-4.7247,-4.7304,-4.7354,-4.7304,-4.739,-4.7395,-4.7442,-4.745,-4.7516,-4.745,-4.7499,-4.7511,-4.7524,-4.7544,-4.7173,-4.7523,-4.7522,-4.7521,-4.752,-4.7519,0,-4.7406,-4.74,-4.7458,-4.7493,-4.7543,-4.7457,-4.7478,-4.7525,-4.7601,-4.7613,-4.7659,-4.774,-4.78,-4.7772,-4.7824,-4.7882,-4.7845,-4.7898,-4.7894,-4.7894,-4.7599,-4.7565,-4.7927,-4.7927,-4.7927,-4.7927,-4.7927,-4.7927,-4.7606,-4.7731,-4.7699,-4.7827,-4.782,-4.7902,-4.7921,-4.7942,-4.7951,-4.8045,-4.8094,-4.8074,-4.807,-4.8121,-4.8172,-4.8162,-4.8186,-4.8254,-4.8231,-4.7956,-4.7915,-4.7877,-4.7845,-4.826,-4.826,-4.852,-4.8522,-4.8524]},{"header":{"parameterUnit":"m.s-1","parameterCategory":1,"la1":30.2991,"la2":30.254,"lo1":-89.0895,"lo2":-89.0444,"dy":0.0017,"dx":0.0017,"nx":28,"ny":28,"refTime":"2024-03-10T09:00:00:Z","depth":0,"parameterNumber":3,"parameterNumberName":"V-component_of_WINDS"},"data":[0,0,0,0,0,0,0,0,0,0,0,0,0,0,0,0,0,0,0,0,0,0,0,0,0,0,0,0,0,0,0,0,0,0,0,0,0,0,0,0,0,0,0,0,0,0,0,0,0,0,0,0,0,0,0,0,0,0,-3.1019,-3.102,0,-3.108,-3.1081,-3.1081,-3.1042,-3.1041,-3.1039,-3.1037,-3.1098,-3.1101,-3.1104,0,0,0,0,0,0,0,0,0,0,0,0,0,-3.0866,-3.0869,-3.1019,-3.102,-3.1021,-3.108,-3.1081,-3.1082,-3.1043,-3.1041,-3.1038,-3.1036,-3.1097,-3.1101,-3.1105,0,0,0,0,0,0,0,0,0,0,0,0,0,-3.0931,-3.087,-3.1019,-3.1009,-3.1008,-3.108,-3.1081,-3.1082,-3.1043,-3.104,-3.1038,-3.1035,-3.1095,-3.11,-3.1105,-3.119,0,0,-3.112,-3.1122,0,0,0,0,0,0,0,0,-3.0927,-3.0936,-3.1009,-3.1009,-3.1009,-3.1051,-3.1049,-3.1118,-3.1044,-3.103,-3.1037,-3.1034,-3.1084,-3.109,-3.1107,-3.1193,-3.1195,-3.1121,-3.1124,-3.1126,-3.1127,0,0,0,0,0,0,0,-3.0923,-3.0933,-3.1043,-3.101,-3.101,-3.1,-3.1006,-3.1062,-3.1072,-3.1031,-3.1028,-3.1036,-3.1084,-3.1103,-3.1108,-3.1196,-3.1121,-3.1125,-3.1128,-3.113,-3.1352,-3.1354,0,0,0,0,0,0,-3.0919,-3.093,-3.1041,-3.1045,-3.0961,-3.1005,-3.1012,-3.104,-3.1071,-3.1073,-3.1038,-3.1034,-3.1095,-3.1103,-3.111,-3.121,-3.1126,-3.113,-3.1133,-3.1349,-3.1352,-3.1355,0,0,0,0,0,0,-3.0916,-3.093,-3.1039,-3.0987,-3.1,-3.101,-3.1043,-3.1043,-3.1062,-3.1076,-3.1078,-3.1056,-3.1094,-3.1103,-3.117,-3.1212,-3.1133,-3.1137,-3.1345,-3.135,-3.1354,-3.1411,0,0,0,0,0,0,-3.0912,-3.0929,-3.0962,-3.0988,-3.1003,-3.1099,-3.1045,-3.1046,-3.1071,-3.1066,-3.1093,-3.1095,-3.1092,-3.1163,-3.1175,-3.1217,-3.1141,-3.1341,-3.1347,-3.1352,-3.1406,-3.1417,-3.1427,0,0,0,0,0,-3.0907,-3.0976,-3.0964,-3.0978,-3.1045,-3.1101,-3.111,-3.1105,-3.1074,-3.1107,-3.1116,-3.1095,-3.1205,-3.117,-3.1183,-3.1228,-3.1339,-3.1346,-3.1352,-3.1401,-3.1415,-3.1426,0,0,0,0,0,0,-3.0955,-3.0979,-3.0966,-3.1046,-3.1072,-3.1095,-3.1136,-3.112,-3.1155,-3.1149,-3.1141,-3.1147,-3.1217,-3.1229,-3.1189,-3.131,-3.1267,-3.1276,-3.13,-3.1313,-3.1323,-3.1319,-3.1145,0,0,0,0,0,-3.0975,-3.102,-3.1038,-3.1107,-3.112,-3.1126,-3.1151,-3.1144,-3.1171,-3.1181,-3.1195,-3.1221,-3.1261,-3.1287,-3.1326,-3.1407,-3.1411,-3.1444,-3.1454,-3.1463,-3.1471,-3.1513,-3.1527,-3.1377,-3.1377,-3.1377,0,0,-3.1017,-3.1036,-3.1064,-3.1117,-3.1136,-3.1181,-3.1136,-3.1186,-3.1219,-3.1189,-3.1252,-3.1263,-3.1291,-3.1364,-3.1398,-3.1377,-3.1513,-3.1471,-3.1478,-3.1482,-3.1521,-3.1535,-3.1548,-3.1381,-3.1381,-3.138,0,0,-3.1116,-3.1135,-3.1194,-3.1214,-3.1243,-3.1246,-3.126,-3.1285,-3.1291,-3.1354,-3.1332,-3.137,-3.144,-3.146,-3.148,-3.1584,-3.1564,-3.1596,-3.1651,-3.1692,-3.1704,-3.1714,-3.175,-3.1763,-3.1604,-3.1604,-3.1605,0,-3.1164,-3.1232,-3.1226,-3.1277,-3.13,-3.1275,-3.1333,-3.1352,-3.1392,-3.1408,-3.1384,-3.147,-3.1487,-3.1564,-3.1589,-3.1606,-3.162,-3.1593,-3.1703,-3.1713,-3.1723,-3.1756,-3.177,-3.1608,-3.1608,-3.1607,-3.1607,0,-3.1289,-3.1336,-3.1379,-3.1419,-3.1446,-3.1501,-3.1501,-3.153,-3.1521,-3.1526,-3.159,-3.1609,-3.1649,-3.1667,-3.1659,-3.1743,-3.1728,-3.1704,-3.166,-3.1741,-3.1772,-3.1785,-3.1613,-3.1612,-3.1611,-3.161,0,0,-3.1422,-3.1455,-3.1471,-3.1487,-3.1517,-3.1553,-3.1605,-3.1644,-3.1668,-3.1696,-3.1739,-3.1798,-3.1774,-3.1796,-3.179,-3.1826,-3.1905,-3.1796,-3.1797,-3.1815,-3.1995,-3.2013,-3.2029,-3.1892,-3.1895,-3.1897,-3.1993,0,-3.1521,-3.1613,-3.1608,-3.1694,-3.1736,-3.1711,-3.1756,-3.1778,-3.1784,-3.182,-3.1825,-3.1866,-3.1833,-3.1846,-3.1881,-3.1888,-3.1941,-3.1881,-3.193,-3.1932,-3.1924,-3.2045,-3.2065,-3.2155,-3.2005,-3.2007,-3.2009,0,-3.165,-3.1682,-3.1772,-3.1793,-3.1811,-3.1852,-3.1886,-3.1921,-3.1945,-3.1946,-3.1969,-3.1957,-3.2008,-3.1963,-3.2032,-3.1992,-3.2011,-3.2018,-3.2021,-3.2025,-3.1975,-3.2051,-3.2184,-3.2197,-3.2028,-3.2027,-3.2025,0,-3.1736,-3.1802,-3.1863,-3.1878,-3.1905,-3.1934,-3.1946,-3.1967,-3.199,-3.202,-3.2035,-3.207,-3.209,-3.2117,-3.2113,-3.2081,-3.2183,-3.2138,-3.2184,-3.2184,-3.2206,-3.2205,-3.2342,-3.222,-3.222,-3.222,-3.222,0,-3.1848,-3.1904,-3.1902,-3.194,-3.2001,-3.1993,-3.2053,-3.2062,-3.2081,-3.2119,-3.2099,-3.2135,-3.2128,-3.2164,-3.2161,-3.2218,-3.2227,-3.2228,-3.2227,-3.223,-3.2229,-3.2242,-3.2235,-3.2224,-3.2223,-3.2222,-3.2221,0,-3.1954,-3.1956,-3.2021,-3.204,-3.2046,-3.209,-3.2106,-3.2141,-3.2144,-3.2192,-3.2203,-3.2208,-3.2248,-3.2247,-3.2293,-3.2291,-3.236,-3.2352,-3.2352,-3.235,-3.2395,-3.2391,-3.2545,-3.2565,-3.2431,-3.2432,-3.2434,0,-3.2025,-3.2067,-3.2091,-3.2115,-3.2129,-3.2168,-3.2191,-3.2185,-3.2209,-3.2238,-3.2269,-3.2308,-3.2339,-3.2404,-3.2411,-3.2445,-3.2437,-3.2489,-3.2442,-3.2443,-3.2436,-3.2433,-3.2437,-3.2498,-3.2499,-3.2501,-3.2502,0,-3.215,-3.2148,-3.2183,-3.2218,-3.2246,-3.2273,-3.2297,-3.2318,-3.2314,-3.2342,-3.2383,-3.2407,-3.2453,-3.2491,-3.2524,-3.2535,-3.2517,-3.2516,-3.2528,-3.2531,-3.2529,-3.253,-3.2376,-3.2513,-3.2511,-3.2511,-3.251,-3.251,-3.224,-3.2276,-3.2297,-3.2336,-3.2353,-3.2376,-3.2409,-3.2416,-3.245,-3.2487,-3.2481,-3.2526,-3.2547,-3.2589,-3.2603,-3.2637,-3.2619,-3.2637,-3.2641,-3.2645,-3.265,-3.2524,-3.2643,-3.2643,-3.2643,-3.2642,-3.2642,0,-3.2363,-3.2375,-3.2411,-3.2445,-3.2475,-3.2456,-3.2481,-3.2507,-3.2548,-3.2568,-3.2598,-3.2644,-3.268,-3.2689,-3.2723,-3.2749,-3.2742,-3.2758,-3.2756,-3.2758,-3.2665,-3.2651,-3.2764,-3.2764,-3.2764,-3.2764,-3.2763,-3.2763,-3.2431,-3.2489,-3.2489,-3.2555,-3.2566,-3.2611,-3.2627,-3.2647,-3.2663,-3.2715,-3.2745,-3.2751,-3.2766,-3.2801,-3.2832,-3.2834,-3.2847,-3.2867,-3.2865,-3.2777,-3.2765,-3.2754,-3.274,-3.287,-3.287,-3.2955,-3.2956,-3.2956]}]]